owner,sensor,date,latitude,longitude,vertical_datum,direction_of_sea_water_velocity,sea_water_speed,upward_sea_water_velocity,qcFlag 
TABS,ioos:station:wmo:42049:1,2007-09-01T00:00:00Z,28.3507,-96.0058,2.0,275.4454262,5.796153897,-99999.0,'11133222,11111222,99999999' 
TABS,ioos:station:wmo:42049:1,2007-09-01T00:30:00Z,28.3507,-96.0058,2.0,254.4905059,6.133326993,-99999.0,'11133222,11111222,99999999' 
TABS,ioos:station:wmo:42049:1,2007-09-01T01:00:00Z,28.3507,-96.0058,2.0,93.1004842,2.403518255,-99999.0,'11133222,11111222,99999999' 
TABS,ioos:station:wmo:42049:1,2007-09-01T01:30:00Z,28.3507,-96.0058,2.0,198.5979303,5.549819817,-99999.0,'11133222,11111222,99999999' 
TABS,ioos:station:wmo:42049:1,2007-09-01T02:00:00Z,28.3507,-96.0058,2.0,166.7892905,6.563695605,-99999.0,'11133222,11111222,99999999' 
TABS,ioos:station:wmo:42049:1,2007-09-01T02:30:00Z,28.3507,-96.0058,2.0,149.9665793,5.914051065,-99999.0,'11133222,11111222,99999999' 
TABS,ioos:station:wmo:42049:1,2007-09-01T03:00:00Z,28.3507,-96.0058,2.0,162.0446208,5.287513593,-99999.0,'11133222,11111222,99999999' 
TABS,ioos:station:wmo:42049:1,2007-09-01T03:30:00Z,28.3507,-96.0058,2.0,129.9231764,6.232848466,-99999.0,'11133222,11111222,99999999' 
TABS,ioos:station:wmo:42049:1,2007-09-01T04:00:00Z,28.3507,-96.0058,2.0,150.7178345,7.830568306,-99999.0,'11133222,11111222,99999999' 
TABS,ioos:station:wmo:42049:1,2007-09-01T04:30:00Z,28.3507,-96.0058,2.0,146.6446812,10.43963601,-99999.0,'11111222,11111222,99999999' 
TABS,ioos:station:wmo:42049:1,2007-09-01T05:00:00Z,28.3507,-96.0058,2.0,152.0816117,11.36239411,-99999.0,'11111222,11111222,99999999' 
TABS,ioos:station:wmo:42049:1,2007-09-01T05:30:00Z,28.3507,-96.0058,2.0,147.2646398,7.822358979,-99999.0,'11133222,11111222,99999999' 
TABS,ioos:station:wmo:42049:1,2007-09-01T06:00:00Z,28.3507,-96.0058,2.0,150.8322444,9.356414912,-99999.0,'11133222,11111222,99999999' 
TABS,ioos:station:wmo:42049:1,2007-09-01T06:30:00Z,28.3507,-96.0058,2.0,162.235456,11.07821737,-99999.0,'11111222,11111222,99999999' 
TABS,ioos:station:wmo:42049:1,2007-09-01T07:00:00Z,28.3507,-96.0058,2.0,167.2210862,12.93026295,-99999.0,'11111222,11111222,99999999' 
TABS,ioos:station:wmo:42049:1,2007-09-01T07:30:00Z,28.3507,-96.0058,2.0,183.820204,6.003340737,-99999.0,'11133222,11111222,99999999' 
TABS,ioos:station:wmo:42049:1,2007-09-01T08:00:00Z,28.3507,-96.0058,2.0,150.0139036,4.421877429,-99999.0,'11133222,11111222,99999999' 
TABS,ioos:station:wmo:42049:1,2007-09-01T08:30:00Z,28.3507,-96.0058,2.0,161.4561636,4.999569982,-99999.0,'11133222,11111222,99999999' 
TABS,ioos:station:wmo:42049:1,2007-09-01T09:00:00Z,28.3507,-96.0058,2.0,164.6647684,5.029055577,-99999.0,'11133222,11111222,99999999' 
TABS,ioos:station:wmo:42049:1,2007-09-01T09:30:00Z,28.3507,-96.0058,2.0,150.1509459,5.464979414,-99999.0,'11133222,11111222,99999999' 
TABS,ioos:station:wmo:42049:1,2007-09-01T10:00:00Z,28.3507,-96.0058,2.0,177.1000375,6.127846277,-99999.0,'11133222,11111222,99999999' 
TABS,ioos:station:wmo:42049:1,2007-09-01T10:30:00Z,28.3507,-96.0058,2.0,147.2526256,2.865414455,-99999.0,'11133222,11111222,99999999' 
TABS,ioos:station:wmo:42049:1,2007-09-01T11:00:00Z,28.3507,-96.0058,2.0,190.6345256,2.330021459,-99999.0,'11133222,11111222,99999999' 
TABS,ioos:station:wmo:42049:1,2007-09-01T11:30:00Z,28.3507,-96.0058,2.0,165.0065849,5.372913549,-99999.0,'11133222,11111222,99999999' 
TABS,ioos:station:wmo:42049:1,2007-09-01T12:00:00Z,28.3507,-96.0058,2.0,172.512123,10.9735728,-99999.0,'11111222,11111222,99999999' 
TABS,ioos:station:wmo:42049:1,2007-09-01T12:30:00Z,28.3507,-96.0058,2.0,202.014142,14.48619343,-99999.0,'11111222,11111222,99999999' 
TABS,ioos:station:wmo:42049:1,2007-09-01T13:00:00Z,28.3507,-96.0058,2.0,227.5304414,15.37335357,-99999.0,'11111222,11111222,99999999' 
TABS,ioos:station:wmo:42049:1,2007-09-01T13:30:00Z,28.3507,-96.0058,2.0,247.3313516,10.92385005,-99999.0,'11111222,11111222,99999999' 
TABS,ioos:station:wmo:42049:1,2007-09-01T14:00:00Z,28.3507,-96.0058,2.0,236.4574116,10.75012558,-99999.0,'11111222,11111222,99999999' 
TABS,ioos:station:wmo:42049:1,2007-09-01T14:30:00Z,28.3507,-96.0058,2.0,265.5149836,9.208192005,-99999.0,'11133222,11111222,99999999' 
TABS,ioos:station:wmo:42049:1,2007-09-01T15:00:00Z,28.3507,-96.0058,2.0,287.3160159,7.122808435,-99999.0,'11133222,11111222,99999999' 
TABS,ioos:station:wmo:42049:1,2007-09-01T15:30:00Z,28.3507,-96.0058,2.0,312.7579571,4.698787078,-99999.0,'11133222,11111222,99999999' 
TABS,ioos:station:wmo:42049:1,2007-09-01T16:00:00Z,28.3507,-96.0058,2.0,308.3492352,4.029342378,-99999.0,'11133222,11111222,99999999' 
TABS,ioos:station:wmo:42049:1,2007-09-01T16:30:00Z,28.3507,-96.0058,2.0,351.6136976,7.267716285,-99999.0,'11133222,11111222,99999999' 
TABS,ioos:station:wmo:42049:1,2007-09-01T17:00:00Z,28.3507,-96.0058,2.0,12.71444854,5.361464352,-99999.0,'11133222,11111222,99999999' 
TABS,ioos:station:wmo:42049:1,2007-09-01T17:30:00Z,28.3507,-96.0058,2.0,7.669695598,8.092391488,-99999.0,'11133222,11111222,99999999' 
TABS,ioos:station:wmo:42049:1,2007-09-01T18:00:00Z,28.3507,-96.0058,2.0,4.279322788,11.39175579,-99999.0,'11111222,11111222,99999999' 
TABS,ioos:station:wmo:42049:1,2007-09-01T18:30:00Z,28.3507,-96.0058,2.0,15.79746761,7.971060155,-99999.0,'11133222,11111222,99999999' 
TABS,ioos:station:wmo:42049:1,2007-09-01T19:00:00Z,28.3507,-96.0058,2.0,3.085937661,7.430773849,-99999.0,'11133222,11111222,99999999' 
TABS,ioos:station:wmo:42049:1,2007-09-01T19:30:00Z,28.3507,-96.0058,2.0,345.3854527,7.926468318,-99999.0,'11133222,11111222,99999999' 
TABS,ioos:station:wmo:42049:1,2007-09-01T20:00:00Z,28.3507,-96.0058,2.0,339.9341321,7.665304952,-99999.0,'11133222,11111222,99999999' 
TABS,ioos:station:wmo:42049:1,2007-09-01T20:30:00Z,28.3507,-96.0058,2.0,344.393134,6.281608074,-99999.0,'11133222,11111222,99999999' 
TABS,ioos:station:wmo:42049:1,2007-09-01T21:00:00Z,28.3507,-96.0058,2.0,336.5366852,6.529938744,-99999.0,'11133222,11111222,99999999' 
TABS,ioos:station:wmo:42049:1,2007-09-01T21:30:00Z,28.3507,-96.0058,2.0,2.916235064,3.734836007,-99999.0,'11133222,11111222,99999999' 
TABS,ioos:station:wmo:42049:1,2007-09-01T22:00:00Z,28.3507,-96.0058,2.0,13.09589185,3.398381968,-99999.0,'11133222,11111222,99999999' 
TABS,ioos:station:wmo:42049:1,2007-09-01T22:30:00Z,28.3507,-96.0058,2.0,1.927701838,2.081177551,-99999.0,'11133222,11111222,99999999' 
TABS,ioos:station:wmo:42049:1,2007-09-01T23:00:00Z,28.3507,-96.0058,2.0,341.8750079,2.925149569,-99999.0,'11133222,11111222,99999999' 
TABS,ioos:station:wmo:42049:1,2007-09-01T23:30:00Z,28.3507,-96.0058,2.0,336.0099506,6.271794002,-99999.0,'11133222,11111222,99999999' 
TABS,ioos:station:wmo:42049:1,2007-09-02T00:00:00Z,28.3507,-96.0058,2.0,332.9993143,9.405174108,-99999.0,'11133222,11111222,99999999' 
TABS,ioos:station:wmo:42049:1,2007-09-02T00:30:00Z,28.3507,-96.0058,2.0,325.6014458,9.416756342,-99999.0,'11133222,11111222,99999999' 
TABS,ioos:station:wmo:42049:1,2007-09-02T01:00:00Z,28.3507,-96.0058,2.0,306.9865179,6.898014207,-99999.0,'11133222,11111222,99999999' 
TABS,ioos:station:wmo:42049:1,2007-09-02T01:30:00Z,28.3507,-96.0058,2.0,324.0667972,13.4617978,-99999.0,'11111222,11111222,99999999' 
TABS,ioos:station:wmo:42049:1,2007-09-02T02:00:00Z,28.3507,-96.0058,2.0,326.0237459,13.86767825,-99999.0,'11111222,11111222,99999999' 
TABS,ioos:station:wmo:42049:1,2007-09-02T02:30:00Z,28.3507,-96.0058,2.0,320.0302822,14.27489054,-99999.0,'11111222,11111222,99999999' 
TABS,ioos:station:wmo:42049:1,2007-09-02T03:00:00Z,28.3507,-96.0058,2.0,309.848246,12.12637621,-99999.0,'11111222,11111222,99999999' 
TABS,ioos:station:wmo:42049:1,2007-09-02T03:30:00Z,28.3507,-96.0058,2.0,314.0574178,10.74240662,-99999.0,'11111222,11111222,99999999' 
TABS,ioos:station:wmo:42049:1,2007-09-02T04:00:00Z,28.3507,-96.0058,2.0,316.1371216,11.76150075,-99999.0,'11111222,11111222,99999999' 
TABS,ioos:station:wmo:42049:1,2007-09-02T04:30:00Z,28.3507,-96.0058,2.0,327.6916345,10.81424986,-99999.0,'11111222,11111222,99999999' 
TABS,ioos:station:wmo:42049:1,2007-09-02T05:00:00Z,28.3507,-96.0058,2.0,326.2187536,8.686616142,-99999.0,'11133222,11111222,99999999' 
TABS,ioos:station:wmo:42049:1,2007-09-02T05:30:00Z,28.3507,-96.0058,2.0,328.9512469,8.065587393,-99999.0,'11133222,11111222,99999999' 
TABS,ioos:station:wmo:42049:1,2007-09-02T06:00:00Z,28.3507,-96.0058,2.0,349.1066899,10.79451713,-99999.0,'11111222,11111222,99999999' 
TABS,ioos:station:wmo:42049:1,2007-09-02T06:30:00Z,28.3507,-96.0058,2.0,356.4333462,7.554634339,-99999.0,'11133222,11111222,99999999' 
TABS,ioos:station:wmo:42049:1,2007-09-02T07:00:00Z,28.3507,-96.0058,2.0,351.3089232,9.529428105,-99999.0,'11133222,11111222,99999999' 
TABS,ioos:station:wmo:42049:1,2007-09-02T07:30:00Z,28.3507,-96.0058,2.0,5.392798972,13.08792573,-99999.0,'11111222,11111222,99999999' 
TABS,ioos:station:wmo:42049:1,2007-09-02T08:00:00Z,28.3507,-96.0058,2.0,25.12280819,12.4364786,-99999.0,'11111222,11111222,99999999' 
TABS,ioos:station:wmo:42049:1,2007-09-02T08:30:00Z,28.3507,-96.0058,2.0,29.11047263,11.98373064,-99999.0,'11111222,11111222,99999999' 
TABS,ioos:station:wmo:42049:1,2007-09-02T09:00:00Z,28.3507,-96.0058,2.0,55.97277312,8.953016252,-99999.0,'11133222,11111222,99999999' 
TABS,ioos:station:wmo:42049:1,2007-09-02T09:30:00Z,28.3507,-96.0058,2.0,64.6337537,8.123176719,-99999.0,'11133222,11111222,99999999' 
TABS,ioos:station:wmo:42049:1,2007-09-02T10:00:00Z,28.3507,-96.0058,2.0,104.172995,8.127391956,-99999.0,'11133222,11111222,99999999' 
TABS,ioos:station:wmo:42049:1,2007-09-02T10:30:00Z,28.3507,-96.0058,2.0,102.5687893,7.766112284,-99999.0,'11133222,11111222,99999999' 
TABS,ioos:station:wmo:42049:1,2007-09-02T11:00:00Z,28.3507,-96.0058,2.0,116.1010668,5.52326896,-99999.0,'11133222,11111222,99999999' 
TABS,ioos:station:wmo:42049:1,2007-09-02T11:30:00Z,28.3507,-96.0058,2.0,120.8934172,6.992002574,-99999.0,'11133222,11111222,99999999' 
TABS,ioos:station:wmo:42049:1,2007-09-02T12:00:00Z,28.3507,-96.0058,2.0,162.6167681,7.062556194,-99999.0,'11133222,11111222,99999999' 
TABS,ioos:station:wmo:42049:1,2007-09-02T12:30:00Z,28.3507,-96.0058,2.0,184.1974481,5.464659184,-99999.0,'11133222,11111222,99999999' 
TABS,ioos:station:wmo:42049:1,2007-09-02T13:00:00Z,28.3507,-96.0058,2.0,189.3946513,6.983673818,-99999.0,'11133222,11111222,99999999' 
TABS,ioos:station:wmo:42049:1,2007-09-02T13:30:00Z,28.3507,-96.0058,2.0,202.5904108,7.549231749,-99999.0,'11133222,11111222,99999999' 
TABS,ioos:station:wmo:42049:1,2007-09-02T14:00:00Z,28.3507,-96.0058,2.0,204.7578755,11.77204315,-99999.0,'11111222,11111222,99999999' 
TABS,ioos:station:wmo:42049:1,2007-09-02T14:30:00Z,28.3507,-96.0058,2.0,205.987027,13.30528091,-99999.0,'11111222,11111222,99999999' 
TABS,ioos:station:wmo:42049:1,2007-09-02T15:00:00Z,28.3507,-96.0058,2.0,214.156852,13.26886958,-99999.0,'11111222,11111222,99999999' 
TABS,ioos:station:wmo:42049:1,2007-09-02T15:30:00Z,28.3507,-96.0058,2.0,210.874046,14.28413456,-99999.0,'11111222,11111222,99999999' 
TABS,ioos:station:wmo:42049:1,2007-09-02T16:00:00Z,28.3507,-96.0058,2.0,212.1254341,15.64560322,-99999.0,'11111222,11111222,99999999' 
TABS,ioos:station:wmo:42049:1,2007-09-02T16:30:00Z,28.3507,-96.0058,2.0,234.6512421,21.46756856,-99999.0,'11111222,11111222,99999999' 
TABS,ioos:station:wmo:42049:1,2007-09-02T17:00:00Z,28.3507,-96.0058,2.0,244.0705587,27.39799263,-99999.0,'11111222,11111222,99999999' 
TABS,ioos:station:wmo:42049:1,2007-09-02T17:30:00Z,28.3507,-96.0058,2.0,253.6398197,31.52644763,-99999.0,'11111222,11111222,99999999' 
TABS,ioos:station:wmo:42049:1,2007-09-02T18:00:00Z,28.3507,-96.0058,2.0,265.0037115,38.92788846,-99999.0,'11111222,11111222,99999999' 
TABS,ioos:station:wmo:42049:1,2007-09-02T18:30:00Z,28.3507,-96.0058,2.0,268.1071914,52.38857223,-99999.0,'11111222,11111222,99999999' 
TABS,ioos:station:wmo:42049:1,2007-09-02T19:00:00Z,28.3507,-96.0058,2.0,265.8940452,61.45770904,-99999.0,'11111222,11111222,99999999' 
TABS,ioos:station:wmo:42049:1,2007-09-02T19:30:00Z,28.3507,-96.0058,2.0,267.8496538,61.04296929,-99999.0,'11111222,11111222,99999999' 
TABS,ioos:station:wmo:42049:1,2007-09-02T20:00:00Z,28.3507,-96.0058,2.0,270.1722079,63.37028483,-99999.0,'11111222,11111222,99999999' 
TABS,ioos:station:wmo:42049:1,2007-09-02T20:30:00Z,28.3507,-96.0058,2.0,272.5730653,63.49399499,-99999.0,'11111222,11111222,99999999' 
TABS,ioos:station:wmo:42049:1,2007-09-02T21:00:00Z,28.3507,-96.0058,2.0,276.0218059,62.91712724,-99999.0,'11111222,11111222,99999999' 
TABS,ioos:station:wmo:42049:1,2007-09-02T21:30:00Z,28.3507,-96.0058,2.0,278.9426422,61.7606679,-99999.0,'11111222,11111222,99999999' 
TABS,ioos:station:wmo:42049:1,2007-09-02T22:00:00Z,28.3507,-96.0058,2.0,283.0072971,59.40413538,-99999.0,'11111222,11111222,99999999' 
TABS,ioos:station:wmo:42049:1,2007-09-02T22:30:00Z,28.3507,-96.0058,2.0,286.4537752,54.68951088,-99999.0,'11111222,11111222,99999999' 
TABS,ioos:station:wmo:42049:1,2007-09-02T23:00:00Z,28.3507,-96.0058,2.0,292.4828691,53.58246168,-99999.0,'11111222,11111222,99999999' 
TABS,ioos:station:wmo:42049:1,2007-09-02T23:30:00Z,28.3507,-96.0058,2.0,292.7520672,47.13781709,-99999.0,'11111222,11111222,99999999' 
TABS,ioos:station:wmo:42049:1,2007-09-03T00:00:00Z,28.3507,-96.0058,2.0,289.7493003,39.71600181,-99999.0,'11111222,11111222,99999999' 
TABS,ioos:station:wmo:42049:1,2007-09-03T00:30:00Z,28.3507,-96.0058,2.0,288.2342138,33.33377416,-99999.0,'11111222,11111222,99999999' 
TABS,ioos:station:wmo:42049:1,2007-09-03T01:00:00Z,28.3507,-96.0058,2.0,298.6108137,17.91784864,-99999.0,'11111222,11111222,99999999' 
TABS,ioos:station:wmo:42049:1,2007-09-03T01:30:00Z,28.3507,-96.0058,2.0,295.1441268,20.73472932,-99999.0,'11111222,11111222,99999999' 
TABS,ioos:station:wmo:42049:1,2007-09-03T02:00:00Z,28.3507,-96.0058,2.0,297.6561291,19.7346396,-99999.0,'11111222,11111222,99999999' 
TABS,ioos:station:wmo:42049:1,2007-09-03T02:30:00Z,28.3507,-96.0058,2.0,296.1662506,16.69041641,-99999.0,'11111222,11111222,99999999' 
TABS,ioos:station:wmo:42049:1,2007-09-03T03:00:00Z,28.3507,-96.0058,2.0,293.4753708,15.51403558,-99999.0,'11111222,11111222,99999999' 
TABS,ioos:station:wmo:42049:1,2007-09-03T03:30:00Z,28.3507,-96.0058,2.0,254.2200104,10.4435674,-99999.0,'11111222,11111222,99999999' 
TABS,ioos:station:wmo:42049:1,2007-09-03T04:00:00Z,28.3507,-96.0058,2.0,254.6157833,16.3975181,-99999.0,'11111222,11111222,99999999' 
TABS,ioos:station:wmo:42049:1,2007-09-03T04:30:00Z,28.3507,-96.0058,2.0,240.7971713,17.68814575,-99999.0,'11111222,11111222,99999999' 
TABS,ioos:station:wmo:42049:1,2007-09-03T05:00:00Z,28.3507,-96.0058,2.0,233.0521576,23.62402167,-99999.0,'11111222,11111222,99999999' 
TABS,ioos:station:wmo:42049:1,2007-09-03T05:30:00Z,28.3507,-96.0058,2.0,237.8792359,29.56552046,-99999.0,'11111222,11111222,99999999' 
TABS,ioos:station:wmo:42049:1,2007-09-03T06:00:00Z,28.3507,-96.0058,2.0,238.702054,27.37335383,-99999.0,'11111222,11111222,99999999' 
TABS,ioos:station:wmo:42049:1,2007-09-03T06:30:00Z,28.3507,-96.0058,2.0,241.7886164,31.13891456,-99999.0,'11111222,11111222,99999999' 
TABS,ioos:station:wmo:42049:1,2007-09-03T07:00:00Z,28.3507,-96.0058,2.0,241.8010828,33.41596325,-99999.0,'11111222,11111222,99999999' 
TABS,ioos:station:wmo:42049:1,2007-09-03T07:30:00Z,28.3507,-96.0058,2.0,239.8031218,33.04387992,-99999.0,'11111222,11111222,99999999' 
TABS,ioos:station:wmo:42049:1,2007-09-03T08:00:00Z,28.3507,-96.0058,2.0,239.1645359,35.13671869,-99999.0,'11111222,11111222,99999999' 
TABS,ioos:station:wmo:42049:1,2007-09-03T08:30:00Z,28.3507,-96.0058,2.0,238.5777162,35.6008146,-99999.0,'11111222,11111222,99999999' 
TABS,ioos:station:wmo:42049:1,2007-09-03T09:00:00Z,28.3507,-96.0058,2.0,241.4300934,39.12382522,-99999.0,'11111222,11111222,99999999' 
TABS,ioos:station:wmo:42049:1,2007-09-03T09:30:00Z,28.3507,-96.0058,2.0,244.2274394,37.16700822,-99999.0,'11111222,11111222,99999999' 
TABS,ioos:station:wmo:42049:1,2007-09-03T10:00:00Z,28.3507,-96.0058,2.0,247.4647008,36.8431174,-99999.0,'11111222,11111222,99999999' 
TABS,ioos:station:wmo:42049:1,2007-09-03T10:30:00Z,28.3507,-96.0058,2.0,249.4527542,36.55546197,-99999.0,'11111222,11111222,99999999' 
TABS,ioos:station:wmo:42049:1,2007-09-03T11:00:00Z,28.3507,-96.0058,2.0,251.0529011,37.17405681,-99999.0,'11111222,11111222,99999999' 
TABS,ioos:station:wmo:42049:1,2007-09-03T11:30:00Z,28.3507,-96.0058,2.0,252.5683896,37.18776681,-99999.0,'11111222,11111222,99999999' 
TABS,ioos:station:wmo:42049:1,2007-09-03T12:00:00Z,28.3507,-96.0058,2.0,253.705052,32.68280588,-99999.0,'11111222,11111222,99999999' 
TABS,ioos:station:wmo:42049:1,2007-09-03T12:30:00Z,28.3507,-96.0058,2.0,249.5947105,37.71664089,-99999.0,'11111222,11111222,99999999' 
TABS,ioos:station:wmo:42049:1,2007-09-03T13:00:00Z,28.3507,-96.0058,2.0,255.4759651,39.91553206,-99999.0,'11111222,11111222,99999999' 
TABS,ioos:station:wmo:42049:1,2007-09-03T13:30:00Z,28.3507,-96.0058,2.0,255.1244025,36.77234287,-99999.0,'11111222,11111222,99999999' 
TABS,ioos:station:wmo:42049:1,2007-09-03T14:00:00Z,28.3507,-96.0058,2.0,250.3910038,37.51564607,-99999.0,'11111222,11111222,99999999' 
TABS,ioos:station:wmo:42049:1,2007-09-03T14:30:00Z,28.3507,-96.0058,2.0,247.119286,33.33265216,-99999.0,'11111222,11111222,99999999' 
TABS,ioos:station:wmo:42049:1,2007-09-03T15:00:00Z,28.3507,-96.0058,2.0,242.8903159,35.30910647,-99999.0,'11111222,11111222,99999999' 
TABS,ioos:station:wmo:42049:1,2007-09-03T15:30:00Z,28.3507,-96.0058,2.0,245.177681,36.75560501,-99999.0,'11111222,11111222,99999999' 
TABS,ioos:station:wmo:42049:1,2007-09-03T16:00:00Z,28.3507,-96.0058,2.0,246.0585794,37.99933289,-99999.0,'11111222,11111222,99999999' 
TABS,ioos:station:wmo:42049:1,2007-09-03T16:30:00Z,28.3507,-96.0058,2.0,251.531497,38.22878104,-99999.0,'11111222,11111222,99999999' 
TABS,ioos:station:wmo:42049:1,2007-09-03T17:00:00Z,28.3507,-96.0058,2.0,255.826268,33.44818381,-99999.0,'11111222,11111222,99999999' 
TABS,ioos:station:wmo:42049:1,2007-09-03T17:30:00Z,28.3507,-96.0058,2.0,254.8987886,32.24340088,-99999.0,'11111222,11111222,99999999' 
TABS,ioos:station:wmo:42049:1,2007-09-03T18:00:00Z,28.3507,-96.0058,2.0,256.4630799,30.58975646,-99999.0,'11111222,11111222,99999999' 
TABS,ioos:station:wmo:42049:1,2007-09-03T18:30:00Z,28.3507,-96.0058,2.0,260.8904669,28.80324982,-99999.0,'11111222,11111222,99999999' 
TABS,ioos:station:wmo:42049:1,2007-09-03T19:00:00Z,28.3507,-96.0058,2.0,257.0225268,29.39063797,-99999.0,'11111222,11111222,99999999' 
TABS,ioos:station:wmo:42049:1,2007-09-03T19:30:00Z,28.3507,-96.0058,2.0,246.2294201,26.32299755,-99999.0,'11111222,11111222,99999999' 
TABS,ioos:station:wmo:42049:1,2007-09-03T20:00:00Z,28.3507,-96.0058,2.0,237.089006,31.39893629,-99999.0,'11111222,11111222,99999999' 
TABS,ioos:station:wmo:42049:1,2007-09-03T20:30:00Z,28.3507,-96.0058,2.0,232.2937678,33.58357485,-99999.0,'11111222,11111222,99999999' 
TABS,ioos:station:wmo:42049:1,2007-09-03T21:00:00Z,28.3507,-96.0058,2.0,221.1709831,33.14536016,-99999.0,'11111222,11111222,99999999' 
TABS,ioos:station:wmo:42049:1,2007-09-03T21:30:00Z,28.3507,-96.0058,2.0,218.5281386,42.91197735,-99999.0,'11111222,11111222,99999999' 
TABS,ioos:station:wmo:42049:1,2007-09-03T22:00:00Z,28.3507,-96.0058,2.0,222.2630046,44.57735412,-99999.0,'11111222,11111222,99999999' 
TABS,ioos:station:wmo:42049:1,2007-09-03T22:30:00Z,28.3507,-96.0058,2.0,222.6717415,49.43928195,-99999.0,'11111222,11111222,99999999' 
TABS,ioos:station:wmo:42049:1,2007-09-03T23:00:00Z,28.3507,-96.0058,2.0,226.402233,55.17793128,-99999.0,'11111222,11111222,99999999' 
TABS,ioos:station:wmo:42049:1,2007-09-03T23:30:00Z,28.3507,-96.0058,2.0,226.2760472,53.96563721,-99999.0,'11111222,11111222,99999999' 
TABS,ioos:station:wmo:42049:1,2007-09-04T00:00:00Z,28.3507,-96.0058,2.0,228.4447162,58.13022966,-99999.0,'11111222,11111222,99999999' 
TABS,ioos:station:wmo:42049:1,2007-09-04T00:30:00Z,28.3507,-96.0058,2.0,230.2876073,55.70251879,-99999.0,'11111222,11111222,99999999' 
TABS,ioos:station:wmo:42049:1,2007-09-04T01:00:00Z,28.3507,-96.0058,2.0,228.5551556,52.10800035,-99999.0,'11111222,11111222,99999999' 
TABS,ioos:station:wmo:42049:1,2007-09-04T01:30:00Z,28.3507,-96.0058,2.0,234.1085669,66.1496523,-99999.0,'11111222,11111222,99999999' 
TABS,ioos:station:wmo:42049:1,2007-09-04T02:00:00Z,28.3507,-96.0058,2.0,234.1985923,67.01165943,-99999.0,'11111222,11111222,99999999' 
TABS,ioos:station:wmo:42049:1,2007-09-04T02:30:00Z,28.3507,-96.0058,2.0,235.2708863,72.21441754,-99999.0,'11111222,11111222,99999999' 
TABS,ioos:station:wmo:42049:1,2007-09-04T03:00:00Z,28.3507,-96.0058,2.0,238.8406578,73.48071039,-99999.0,'11111222,11111222,99999999' 
TABS,ioos:station:wmo:42049:1,2007-09-04T03:30:00Z,28.3507,-96.0058,2.0,240.9633863,72.81147712,-99999.0,'11111222,11111222,99999999' 
TABS,ioos:station:wmo:42049:1,2007-09-04T04:00:00Z,28.3507,-96.0058,2.0,241.8908867,71.54883787,-99999.0,'11111222,11111222,99999999' 
TABS,ioos:station:wmo:42049:1,2007-09-04T04:30:00Z,28.3507,-96.0058,2.0,242.5835711,73.16774289,-99999.0,'11111222,11111222,99999999' 
TABS,ioos:station:wmo:42049:1,2007-09-04T05:00:00Z,28.3507,-96.0058,2.0,245.3526237,75.89441943,-99999.0,'11111222,11111222,99999999' 
TABS,ioos:station:wmo:42049:1,2007-09-04T05:30:00Z,28.3507,-96.0058,2.0,248.2863041,77.30506064,-99999.0,'11111222,11111222,99999999' 
TABS,ioos:station:wmo:42049:1,2007-09-04T06:00:00Z,28.3507,-96.0058,2.0,253.4180738,74.60237329,-99999.0,'11111222,11111222,99999999' 
TABS,ioos:station:wmo:42049:1,2007-09-04T06:30:00Z,28.3507,-96.0058,2.0,254.9001305,70.71130956,-99999.0,'11111222,11111222,99999999' 
TABS,ioos:station:wmo:42049:1,2007-09-04T07:00:00Z,28.3507,-96.0058,2.0,256.4636003,66.94966019,-99999.0,'11111222,11111222,99999999' 
TABS,ioos:station:wmo:42049:1,2007-09-04T07:30:00Z,28.3507,-96.0058,2.0,257.9871993,64.14460305,-99999.0,'11111222,11111222,99999999' 
TABS,ioos:station:wmo:42049:1,2007-09-04T08:00:00Z,28.3507,-96.0058,2.0,260.5123631,60.48732512,-99999.0,'11111222,11111222,99999999' 
TABS,ioos:station:wmo:42049:1,2007-09-04T08:30:00Z,28.3507,-96.0058,2.0,262.9378153,55.06773465,-99999.0,'11111222,11111222,99999999' 
TABS,ioos:station:wmo:42049:1,2007-09-04T09:00:00Z,28.3507,-96.0058,2.0,264.2507089,52.11209936,-99999.0,'11111222,11111222,99999999' 
TABS,ioos:station:wmo:42049:1,2007-09-04T09:30:00Z,28.3507,-96.0058,2.0,262.9710288,45.68329782,-99999.0,'11111222,11111222,99999999' 
TABS,ioos:station:wmo:42049:1,2007-09-04T10:00:00Z,28.3507,-96.0058,2.0,266.3623029,43.97858797,-99999.0,'11111222,11111222,99999999' 
TABS,ioos:station:wmo:42049:1,2007-09-04T10:30:00Z,28.3507,-96.0058,2.0,268.8724492,38.1273773,-99999.0,'11111222,11111222,99999999' 
TABS,ioos:station:wmo:42049:1,2007-09-04T11:00:00Z,28.3507,-96.0058,2.0,270.4208725,35.43095398,-99999.0,'11111222,11111222,99999999' 
TABS,ioos:station:wmo:42049:1,2007-09-04T11:30:00Z,28.3507,-96.0058,2.0,272.5371767,26.88634784,-99999.0,'11111222,11111222,99999999' 
TABS,ioos:station:wmo:42049:1,2007-09-04T12:00:00Z,28.3507,-96.0058,2.0,263.4695167,12.66214832,-99999.0,'11111222,11111222,99999999' 
TABS,ioos:station:wmo:42049:1,2007-09-04T12:30:00Z,28.3507,-96.0058,2.0,264.2139105,19.74055977,-99999.0,'11111222,11111222,99999999' 
TABS,ioos:station:wmo:42049:1,2007-09-04T13:00:00Z,28.3507,-96.0058,2.0,266.9850773,17.49420761,-99999.0,'11111222,11111222,99999999' 
TABS,ioos:station:wmo:42049:1,2007-09-04T13:30:00Z,28.3507,-96.0058,2.0,271.0904814,14.19256848,-99999.0,'11111222,11111222,99999999' 
TABS,ioos:station:wmo:42049:1,2007-09-04T14:00:00Z,28.3507,-96.0058,2.0,243.8751697,13.37655412,-99999.0,'11111222,11111222,99999999' 
TABS,ioos:station:wmo:42049:1,2007-09-04T14:30:00Z,28.3507,-96.0058,2.0,225.9059805,12.51735595,-99999.0,'11111222,11111222,99999999' 
TABS,ioos:station:wmo:42049:1,2007-09-04T15:00:00Z,28.3507,-96.0058,2.0,224.1388796,12.70814306,-99999.0,'11111222,11111222,99999999' 
TABS,ioos:station:wmo:42049:1,2007-09-04T15:30:00Z,28.3507,-96.0058,2.0,195.1807355,8.13384288,-99999.0,'11133222,11111222,99999999' 
TABS,ioos:station:wmo:42049:1,2007-09-04T16:00:00Z,28.3507,-96.0058,2.0,197.6001133,18.45384784,-99999.0,'11111222,11111222,99999999' 